Wind_Speed
12 12 12 13 14 15 16 16 16 16 13 11 8 8 7 8 7 6 6 7 9 10 14 17 22 22 18 15 15 12 3 3 1 8 10 7 8 9 6 2 6 8 5 7 8
12 12 12 13 15 15 16 16 15 14 13 12 8 7 6 7 5 4 6 7 9 9 13 15 22 22 20 17 16 13 8 4 4 5 8 5 8 8 3 2 5 7 5 8 12
13 13 14 14 15 16 16 16 15 13 13 11 8 7 6 5 3 3 5 8 10 9 14 17 23 22 21 19 18 15 11 3 4 4 7 7 10 8 4 2 4 5 5 7 11
13 13 13 14 15 16 17 16 15 12 12 9 7 7 4 4 5 3 5 7 9 10 14 17 24 23 23 21 20 14 11 3 2 3 8 10 9 7 6 2 3 5 7 6 11
14 14 14 14 14 15 17 17 14 11 11 9 6 8 4 3 6 3 3 7 9 10 14 16 22 23 23 21 18 16 13 5 3 3 8 12 9 8 3 3 2 4 8 10 12
14 15 15 16 15 14 16 16 13 11 10 8 6 9 4 4 6 5 4 5 9 11 13 17 22 21 20 17 17 14 13 10 7 9 12 15 15 13 11 7 5 3 6 11 11
15 15 16 17 16 15 16 15 13 11 10 7 6 10 6 5 5 6 5 7 9 12 13 18 21 21 19 15 17 17 11 10 10 7 9 14 19 16 12 9 6 5 5 10 15
15 16 17 18 17 16 15 15 13 12 10 7 6 10 7 5 6 7 5 8 11 14 19 18 19 18 14 17 15 16 12 9 9 9 11 15 10 14 15 11 7 7 7 7 13
16 16 17 18 18 17 15 15 14 13 11 8 7 9 8 8 9 8 7 9 12 18 21 17 17 16 18 16 14 15 10 12 11 14 15 18 12 12 16 14 10 8 9 7 14
17 16 16 17 17 17 14 14 14 12 12 9 10 9 12 13 12 10 7 10 15 21 21 17 15 15 15 18 17 12 15 11 11 18 18 20 15 12 14 19 15 12 11 9 7
18 16 17 17 17 16 12 12 13 13 11 11 8 16 16 15 13 11 10 11 16 23 23 17 14 13 12 13 14 17 16 15 12 12 18 19 21 20 14 14 17 20 18 14 9
19 17 15 17 17 14 12 10 10 11 5 13 14 14 12 16 13 13 12 13 15 19 23 17 15 14 11 12 11 13 15 15 15 10 11 12 15 13 22 22 18 16 21 19 16
20 17 15 15 15 14 11 9 9 9 5 4 6 8 20 15 14 14 9 9 9 12 17 17 5 16 16 13 10 14 16 12 8 15 10 12 17 18 14 13 16 18 18 25 22
21 17 15 14 13 13 11 9 6 7 1 4 3 5 20 18 16 14 12 10 9 4 9 12 16 14 9 13 14 12 16 15 10 9 10 14 10 17 18 19 17 17 19 20 25
21 18 16 13 12 13 11 9 4 2 1 2 4 5 15 19 12 16 12 11 9 4 3 3 3 10 11 6 9 7 8 13 12 10 11 15 9 14 19 22 24 19 21 21 23
21 19 17 15 13 12 11 9 5 3 4 3 4 3 8 17 18 10 18 13 8 7 7 4 8 8 11 5 4 6 5 8 10 11 12 16 15 16 18 21 25 19 16 18 23
21 19 17 16 13 12 10 9 5 6 4 2 5 4 8 11 15 12 13 19 12 8 7 6 11 14 9 6 6 7 10 8 8 8 11 16 12 19 17 19 25 21 13 20 23
21 19 18 17 13 12 12 13 8 7 10 1 3 9 10 11 14 12 8 20 18 11 2 3 2 9 9 10 7 8 10 12 9 10 12 9 7 10 13 19 20 22 21 20 21
21 19 18 17 16 14 14 16 10 9 9 8 9 11 14 12 11 9 7 16 16 12 8 1 4 8 0 3 5 6 11 11 7 6 5 9 11 11 11 10 11 13 16 19 21
20 18 18 18 16 16 18 21 16 12 8 8 8 8 12 14 11 12 11 5 8 10 10 6 6 4 4 10 2 9 9 6 8 7 10 8 8 10 12 16 13 10 11 14 18
18 16 16 15 14 17 22 21 23 15 11 7 8 9 12 11 12 10 11 10 7 4 6 8 8 6 7 1 2 1 5 10 9 8 8 9 9 10 12 16 15 15 14 14 13
18 13 13 13 15 18 23 19 19 21 15 8 6 9 9 8 10 7 13 7 8 6 5 4 6 5 10 14 12 13 14 10 7 5 8 9 18 21 19 17 19 18 16 14 18
16 13 11 12 14 17 18 22 17 20 20 13 8 8 11 9 6 11 11 9 6 4 4 3 1 2 2 4 7 7 5 4 8 7 8 8 11 14 18 17 18 17 19 17 19
14 10 10 14 16 11 14 15 14 19 22 16 11 11 11 10 8 12 10 6 1 0 2 3 0 1 3 5 11 15 12 13 11 8 10 14 16 12 15 18 17 18 16 17 18
15 11 11 9 17 11 13 9 9 10 15 21 17 15 12 11 9 9 7 5 1 3 3 2 2 5 7 7 9 12 13 12 13 14 13 12 13 11 12 15 17 15 13 13 14
15 12 13 14 8 16 13 10 8 13 14 15 15 18 16 15 11 9 6 2 1 4 6 6 5 7 10 10 9 13 13 14 14 15 17 16 12 13 11 8 14 12 14 16 16
16 13 12 16 11 12 12 8 6 9 14 14 13 15 19 16 10 8 4 1 2 3 5 6 5 7 4 7 13 12 13 14 16 17 18 18 14 16 13 12 9 13 21 21 18
Wind_Direction
310 307 304 302 303 303 302 300 299 303 300 297 276 282 302 299 293 270 238 220 203 200 197 194 187 188 187 186 189 190 150 83 238 234 241 244 212 244 254 299 23 27 54 97 133
303 300 299 300 302 302 301 301 299 304 305 292 283 263 300 301 290 266 225 205 195 186 192 193 186 189 188 191 196 183 148 76 24 226 234 209 204 239 248 72 24 36 89 120 133
307 304 305 302 301 302 302 301 301 307 307 295 279 246 292 304 259 237 219 208 189 186 187 184 180 189 192 195 198 190 173 102 28 275 211 197 203 229 260 65 72 29 69 118 139
306 307 305 303 305 307 304 301 306 309 307 301 273 228 276 299 221 240 224 208 192 192 184 187 182 188 197 200 202 192 183 150 38 343 203 187 193 205 222 116 121 99 136 119 138
299 301 302 302 304 307 305 305 309 305 302 300 259 216 243 276 225 232 241 202 192 194 177 188 186 190 201 205 207 208 203 223 284 301 214 205 224 223 243 209 165 98 146 149 151
293 297 299 299 301 305 304 307 308 297 300 294 252 208 224 265 219 221 239 220 192 188 177 182 187 193 200 205 207 217 222 236 276 269 216 222 222 225 229 234 191 147 153 171 168
289 294 297 299 301 302 304 309 301 290 296 283 251 206 212 234 204 202 224 228 197 182 177 177 191 194 198 196 210 215 225 245 272 221 202 201 216 217 228 231 200 189 158 189 180
286 292 296 298 300 299 301 308 300 289 288 275 245 206 217 210 197 213 235 216 200 186 174 183 192 195 194 200 204 218 230 235 252 181 181 202 219 208 220 241 224 207 191 187 202
282 288 294 297 300 300 301 303 300 288 281 270 236 213 211 194 199 202 211 207 197 183 183 193 199 189 199 198 201 213 212 220 237 198 195 202 221 215 225 235 229 228 205 180 192
274 285 291 297 300 303 304 303 299 289 278 266 231 215 196 196 201 200 217 200 190 189 193 200 208 207 203 200 211 206 203 205 215 204 203 213 215 224 238 249 252 243 218 198 181
269 281 292 298 302 304 304 302 300 296 268 252 218 204 193 193 197 201 211 203 194 196 203 208 211 212 214 219 218 210 214 206 207 209 213 218 227 239 246 257 260 251 235 211 195
264 277 290 299 303 302 305 307 315 313 257 261 238 212 189 198 187 196 207 206 202 203 211 218 223 225 226 232 219 204 194 188 186 189 199 221 235 232 240 260 267 274 250 225 205
259 272 286 296 298 295 294 295 309 320 328 225 253 219 195 203 196 194 180 176 201 215 223 227 235 223 228 230 223 223 221 204 196 172 214 221 231 233 243 256 268 261 228 237 218
256 267 279 290 289 284 284 277 300 326 356 79 104 165 190 198 203 195 199 207 205 181 217 231 232 216 227 233 236 236 229 225 217 218 230 210 244 226 221 247 268 278 247 229 230
253 264 274 281 282 274 275 265 270 316 334 96 98 134 185 194 201 210 215 214 228 193 191 183 199 208 209 208 222 229 207 214 229 239 230 217 246 239 236 240 252 270 264 244 243
249 258 270 275 278 270 261 250 246 262 251 141 136 131 168 195 207 211 213 220 223 230 239 237 215 187 179 177 159 199 208 221 243 239 231 233 235 251 245 247 248 262 271 259 253
246 257 264 271 269 266 249 229 212 223 201 143 191 196 157 170 184 197 216 218 212 209 252 259 233 218 232 246 245 220 199 211 221 221 246 242 234 248 262 271 253 260 263 266 258
244 254 263 269 262 251 234 206 213 227 219 100 162 163 170 162 190 203 239 209 209 224 258 344 96 207 226 228 231 219 213 230 228 229 240 236 228 257 264 244 248 253 253 261 260
241 252 262 262 263 247 224 204 214 213 207 193 150 152 158 163 179 181 176 198 214 235 236 284 141 360 311 210 225 236 226 235 240 260 257 250 264 256 267 281 253 249 244 248 255
238 248 260 262 256 241 221 217 213 208 189 178 170 160 141 159 174 174 161 157 204 223 237 253 257 268 265 306 239 251 241 228 222 239 251 235 250 256 287 270 272 234 253 271 264
236 246 256 259 246 230 218 218 216 215 201 177 161 154 139 131 150 145 148 119 118 148 192 222 237 259 300 287 247 204 226 243 243 238 264 270 262 275 301 286 293 247 241 252 269
234 241 247 245 234 226 219 217 215 212 207 191 177 170 154 133 128 125 158 141 114 111 141 204 239 246 263 286 283 259 257 257 249 260 247 268 269 277 286 285 293 257 248 254 273
230 236 240 229 226 230 222 221 215 210 221 220 206 179 160 152 134 144 144 136 123 104 90 60 75 323 292 134 79 81 86 184 318 318 261 280 289 294 272 277 280 250 233 258 261
215 224 223 220 218 221 214 224 230 228 223 213 206 196 182 163 151 163 158 154 164 323 10 356 351 296 277 280 283 295 284 299 309 284 290 285 304 294 274 255 251 232 251 256 259
205 216 221 219 211 196 190 174 193 207 215 219 219 204 200 187 167 166 176 177 225 300 306 306 302 290 299 284 288 299 300 305 296 297 279 289 318 343 279 262 237 240 242 251 249
200 211 219 219 215 204 197 204 204 206 196 193 194 211 197 191 185 178 165 155 248 275 269 265 267 290 299 296 269 269 278 288 291 288 281 265 285 315 346 279 246 228 231 221 211
200 213 211 210 214 205 212 212 195 204 196 177 185 198 199 191 193 157 124 19 16 254 256 259 269 299 267 289 301 283 283 271 277 287 282 259 271 296 296 290 289 248 216 207 220
Height
3165 3164 3163 3162 3161 3160 3158 3157 3156 3155 3155 3155 3155 3155 3154 3153 3152 3153 3153 3155 3155 3157 3159 3161 3165 3170 3173 3176 3180 3182 3185 3185 3185 3184 3185 3186 3188 3188 3188 3187 3186 3184 3183 3182 3183
3164 3163 3162 3160 3159 3158 3157 3155 3154 3153 3153 3152 3152 3153 3153 3152 3151 3152 3152 3152 3154 3156 3158 3161 3165 3169 3172 3175 3178 3182 3184 3184 3184 3183 3184 3186 3188 3188 3188 3188 3188 3186 3184 3184 3184
3162 3160 3159 3158 3157 3156 3155 3153 3152 3151 3150 3149 3150 3151 3151 3151 3151 3151 3151 3152 3153 3155 3157 3160 3163 3168 3172 3174 3177 3180 3183 3184 3183 3183 3184 3186 3187 3187 3188 3189 3189 3188 3186 3186 3186
3159 3159 3157 3156 3155 3154 3152 3150 3150 3149 3148 3147 3147 3149 3150 3150 3153 3150 3150 3151 3153 3154 3157 3160 3163 3167 3170 3173 3176 3180 3182 3183 3183 3183 3184 3186 3187 3188 3189 3190 3189 3187 3187 3187 3187
3157 3156 3155 3154 3153 3151 3149 3148 3148 3146 3145 3145 3145 3147 3148 3149 3150 3149 3149 3150 3152 3153 3156 3160 3163 3166 3169 3172 3175 3178 3181 3182 3183 3183 3184 3186 3187 3189 3189 3190 3190 3188 3187 3188 3189
3155 3153 3152 3151 3150 3149 3148 3146 3145 3144 3143 3143 3143 3144 3146 3148 3148 3148 3149 3150 3151 3153 3155 3158 3161 3164 3168 3171 3174 3177 3179 3181 3181 3181 3182 3184 3185 3188 3188 3189 3190 3190 3189 3189 3190
3151 3150 3149 3149 3148 3146 3144 3143 3143 3142 3142 3141 3141 3142 3144 3146 3146 3147 3147 3149 3150 3153 3155 3157 3160 3164 3166 3170 3172 3175 3178 3179 3179 3179 3180 3182 3185 3186 3187 3189 3189 3190 3190 3189 3190
3148 3147 3146 3145 3144 3143 3142 3141 3140 3139 3139 3138 3139 3140 3142 3143 3144 3146 3147 3148 3150 3152 3154 3157 3159 3162 3166 3169 3171 3174 3176 3178 3177 3177 3180 3183 3183 3185 3186 3187 3189 3189 3190 3190 3190
3145 3144 3143 3141 3140 3140 3140 3138 3137 3136 3136 3135 3137 3138 3141 3141 3143 3144 3145 3147 3149 3151 3153 3156 3159 3161 3164 3167 3170 3171 3174 3175 3175 3176 3179 3181 3182 3183 3185 3186 3187 3189 3190 3190 3190
3141 3141 3140 3138 3137 3136 3136 3135 3133 3132 3132 3133 3134 3138 3138 3139 3140 3142 3144 3146 3148 3150 3153 3155 3157 3160 3163 3165 3167 3169 3171 3172 3173 3175 3177 3179 3180 3181 3183 3184 3187 3188 3189 3190 3189
3137 3138 3137 3135 3134 3133 3133 3133 3133 3132 3129 3130 3131 3133 3134 3136 3139 3141 3143 3145 3147 3149 3151 3153 3156 3158 3161 3163 3164 3166 3168 3170 3171 3172 3175 3176 3178 3180 3181 3182 3183 3185 3187 3188 3188
3133 3134 3134 3133 3131 3130 3129 3129 3129 3128 3127 3125 3127 3129 3132 3134 3137 3139 3142 3144 3146 3148 3149 3153 3154 3157 3159 3161 3162 3164 3166 3168 3169 3171 3173 3174 3175 3177 3177 3177 3179 3181 3183 3185 3187
3128 3130 3130 3130 3129 3128 3127 3127 3126 3126 3124 3124 3125 3126 3130 3133 3136 3139 3141 3143 3145 3146 3148 3150 3154 3154 3156 3158 3160 3162 3164 3166 3168 3169 3170 3171 3171 3172 3173 3173 3174 3175 3177 3180 3183
3124 3126 3127 3127 3129 3125 3125 3125 3125 3125 3123 3125 3124 3125 3127 3131 3135 3137 3140 3144 3144 3144 3145 3148 3150 3152 3154 3155 3157 3159 3161 3163 3164 3166 3167 3168 3166 3166 3168 3169 3169 3169 3170 3173 3175
3120 3122 3122 3123 3123 3123 3124 3123 3124 3125 3123 3125 3124 3124 3126 3130 3133 3136 3138 3141 3142 3143 3145 3147 3146 3148 3152 3153 3154 3156 3158 3160 3161 3162 3163 3163 3164 3162 3163 3163 3165 3165 3164 3166 3168
3115 3117 3118 3119 3120 3121 3121 3122 3124 3126 3121 3122 3121 3122 3125 3127 3131 3133 3136 3139 3141 3142 3142 3144 3145 3147 3149 3151 3152 3153 3155 3157 3157 3157 3157 3158 3159 3156 3158 3159 3160 3161 3160 3160 3161
3110 3112 3114 3115 3117 3117 3119 3121 3125 3122 3120 3121 3120 3121 3123 3125 3128 3131 3134 3136 3139 3141 3140 3141 3142 3144 3146 3148 3150 3150 3152 3153 3154 3153 3150 3152 3152 3151 3152 3153 3154 3156 3155 3155 3155
3106 3108 3109 3111 3112 3113 3116 3120 3120 3116 3117 3118 3118 3119 3121 3124 3127 3129 3131 3133 3137 3139 3140 3140 3141 3141 3143 3145 3147 3147 3149 3148 3146 3145 3146 3147 3146 3145 3146 3147 3148 3149 3150 3149 3149
3101 3103 3105 3106 3107 3109 3113 3114 3114 3114 3115 3117 3117 3118 3119 3122 3126 3127 3129 3132 3134 3137 3141 3140 3140 3141 3141 3142 3144 3143 3145 3146 3144 3144 3145 3143 3142 3143 3143 3143 3143 3143 3144 3144 3144
3096 3099 3101 3101 3102 3104 3107 3108 3110 3112 3113 3115 3116 3117 3118 3120 3123 3125 3128 3131 3132 3134 3136 3138 3139 3139 3140 3140 3141 3141 3142 3143 3142 3141 3140 3138 3138 3139 3140 3140 3139 3139 3139 3139 3139
3091 3094 3095 3096 3098 3100 3101 3103 3106 3110 3112 3114 3114 3116 3117 3119 3121 3123 3127 3130 3130 3131 3133 3135 3137 3138 3138 3137 3138 3138 3138 3139 3139 3138 3135 3135 3135 3136 3136 3136 3135 3135 3135 3136 3134
3086 3090 3090 3092 3095 3094 3096 3099 3102 3106 3109 3112 3114 3115 3116 3118 3119 3122 3125 3127 3129 3130 3131 3133 3134 3134 3135 3134 3134 3134 3134 3136 3136 3136 3134 3134 3132 3132 3132 3132 3131 3130 3131 3132 3131
3082 3085 3086 3088 3089 3091 3093 3096 3098 3103 3106 3110 3112 3113 3115 3117 3120 3121 3124 3126 3128 3129 3130 3131 3132 3132 3132 3134 3132 3132 3131 3133 3134 3133 3132 3131 3128 3127 3127 3127 3126 3126 3127 3127 3126
3079 3081 3082 3083 3086 3088 3090 3093 3096 3099 3103 3106 3110 3112 3114 3116 3117 3120 3123 3125 3126 3128 3129 3130 3130 3131 3132 3132 3131 3130 3131 3131 3132 3131 3129 3128 3124 3122 3121 3121 3120 3122 3124 3123 3122
3074 3076 3078 3079 3083 3086 3088 3091 3093 3096 3099 3102 3107 3110 3113 3115 3117 3119 3122 3124 3125 3126 3127 3129 3129 3129 3129 3129 3128 3127 3127 3128 3128 3127 3126 3125 3122 3120 3118 3117 3118 3119 3120 3119 3119
3070 3073 3075 3078 3081 3084 3086 3089 3091 3093 3096 3100 3104 3107 3110 3114 3116 3118 3120 3122 3123 3124 3125 3126 3126 3126 3125 3125 3124 3124 3124 3124 3123 3123 3121 3121 3120 3119 3116 3115 3116 3116 3117 3117 3117
3066 3070 3073 3076 3079 3082 3085 3088 3089 3091 3094 3097 3101 3104 3107 3112 3114 3116 3118 3119 3120 3122 3122 3123 3123 3122 3122 3121 3121 3121 3120 3119 3119 3119 3119 3118 3118 3116 3115 3115 3115 3115 3115 3116 3116